When you browse on this site, cookies collect data to enhance your experience and personalize the content and advertising you see.
Visit our Privacy Policy to learn more. By continuing to use the site, you agree to this use of cookies and data.
  • In Hungary
  • List of Countries
  • For 7 days
  • Water Temperature
  • Satellite Maps
  • Weather Map
  • News
  • Weather Widgets
  • user-avatar
    Login

    Hourly Weather Malyshevo

    Today, 24 January, Thursday

    Time Temperature Precipitation Wind Pressure Humidity
    00:00 -18°C° 0 mm 3 mps 743 mmHg 98%
    01:00 -19°C° 0 mm 3 mps 743 mmHg 98%
    02:00 -19°C° 0 mm 3 mps 742 mmHg 97%
    03:00 -19°C° 0 mm 3 mps 742 mmHg 96%
    04:00 -19°C° 0 mm 3 mps 742 mmHg 96%
    05:00 -19°C° 0 mm 3 mps 742 mmHg 96%
    06:00 -21°C° 0 mm 3 mps 742 mmHg 96%
    07:00 -21°C° 0 mm 3 mps 742 mmHg 96%
    08:00 -21°C° 0 mm 3 mps 743 mmHg 96%
    09:00 -19°C° 0 mm 3 mps 743 mmHg 95%
    10:00 -16°C° 0 mm 2 mps 743 mmHg 94%
    11:00 -15°C° 0 mm 2 mps 744 mmHg 93%
    12:00 -14°C° 0 mm 2 mps 744 mmHg 92%
    13:00 -14°C° 0 mm 2 mps 744 mmHg 91%
    14:00 -13°C° 0 mm 2 mps 744 mmHg 91%
    15:00 -14°C° 0 mm 2 mps 744 mmHg 90%
    16:00 -15°C° 0 mm 2 mps 745 mmHg 90%
    17:00 -16°C° 0 mm 2 mps 745 mmHg 89%
    18:00 -16°C° 0 mm 2 mps 745 mmHg 90%
    19:00 -17°C° 0 mm 2 mps 746 mmHg 91%
    20:00 -17°C° 0 mm 2 mps 746 mmHg 93%
    21:00 -16°C° 0 mm 2 mps 746 mmHg 94%
    22:00 -15°C° 0 mm 2 mps 747 mmHg 95%
    23:00 -14°C° 0 mm 2 mps 747 mmHg 96%

    Tomorrow, 25 January, Friday

    Time Temperature Precipitation Wind Pressure Humidity
    00:00 -15°C° 0 mm 2 mps 748 mmHg 96%
    01:00 -15°C° 0 mm 2 mps 748 mmHg 96%
    02:00 -16°C° 0 mm 2 mps 748 mmHg 96%
    03:00 -16°C° 0 mm 2 mps 748 mmHg 96%
    04:00 -17°C° 0 mm 2 mps 749 mmHg 96%
    05:00 -18°C° 0 mm 2 mps 749 mmHg 96%
    06:00 -19°C° 0 mm 2 mps 749 mmHg 96%
    07:00 -19°C° 0 mm 2 mps 749 mmHg 96%
    08:00 -19°C° 0 mm 2 mps 749 mmHg 96%
    09:00 -19°C° 0 mm 3 mps 750 mmHg 94%
    10:00 -18°C° 0 mm 3 mps 750 mmHg 92%
    11:00 -17°C° 0 mm 3 mps 750 mmHg 89%
    12:00 -16°C° 0 mm 3 mps 750 mmHg 89%
    13:00 -15°C° 0 mm 3 mps 750 mmHg 88%
    14:00 -15°C° 0 mm 3 mps 750 mmHg 88%
    15:00 -16°C° 0 mm 3 mps 749 mmHg 88%
    16:00 -16°C° 0 mm 3 mps 749 mmHg 89%
    17:00 -18°C° 0 mm 4 mps 749 mmHg 89%
    18:00 -18°C° 0 mm 4 mps 749 mmHg 88%
    19:00 -18°C° 0 mm 4 mps 748 mmHg 88%
    20:00 -19°C° 0 mm 5 mps 748 mmHg 87%
    21:00 -19°C° 0 mm 5 mps 747 mmHg 86%
    22:00 -19°C° 0 mm 5 mps 747 mmHg 86%
    23:00 -18°C° 0 mm 5 mps 746 mmHg 85%

    Day after tomorrow, 26 January, Saturday

    Time Temperature Precipitation Wind Pressure Humidity
    00:00 -18°C° 0 mm 5 mps 746 mmHg 85%
    01:00 -18°C° 0 mm 5 mps 745 mmHg 85%
    02:00 -17°C° 0 mm 4 mps 744 mmHg 86%
    03:00 -18°C° 0.1 mm 5 mps 743 mmHg 88%
    04:00 -18°C° 0.1 mm 5 mps 742 mmHg 90%
    05:00 -18°C° 0.1 mm 6 mps 741 mmHg 92%
    06:00 -18°C° 0.8 mm 5 mps 741 mmHg 93%
    07:00 -18°C° 0.8 mm 5 mps 740 mmHg 95%
    08:00 -17°C° 0.8 mm 4 mps 739 mmHg 96%
    09:00 -17°C° 0.5 mm 4 mps 739 mmHg 95%
    10:00 -16°C° 0.5 mm 4 mps 738 mmHg 95%
    11:00 -16°C° 0.5 mm 4 mps 738 mmHg 95%
    12:00 -14°C° 0.3 mm 3 mps 737 mmHg 95%
    13:00 -13°C° 0.3 mm 3 mps 736 mmHg 94%
    14:00 -13°C° 0.3 mm 3 mps 736 mmHg 94%
    15:00 -10°C° 0.1 mm 2 mps 735 mmHg 95%
    16:00 -10°C° 0.1 mm 2 mps 735 mmHg 96%
    17:00 -9°C° 0.1 mm 1 mps 734 mmHg 97%
    18:00 -9°C° 0.2 mm 1 mps 734 mmHg 97%
    19:00 -9°C° 0.2 mm 1 mps 733 mmHg 97%
    20:00 -9°C° 0.2 mm 1 mps 733 mmHg 97%
    21:00 -9°C° 0.2 mm 1 mps 733 mmHg 97%
    22:00 -9°C° 0.2 mm 1 mps 732 mmHg 97%
    23:00 -9°C° 0.2 mm 1 mps 732 mmHg 97%

    27 January, Sunday

    Time Temperature Precipitation Wind Pressure Humidity
    00:00 -10°C° 0 mm 1 mps 732 mmHg 97%
    01:00 -11°C° 0 mm 1 mps 732 mmHg 97%
    02:00 -12°C° 0 mm 1 mps 732 mmHg 97%
    03:00 -12°C° 0 mm 1 mps 732 mmHg 97%
    04:00 -13°C° 0 mm 1 mps 731 mmHg 97%
    05:00 -13°C° 0 mm 1 mps 731 mmHg 97%
    06:00 -16°C° 0 mm 2 mps 731 mmHg 97%
    07:00 -16°C° 0 mm 2 mps 732 mmHg 97%
    08:00 -16°C° 0 mm 2 mps 732 mmHg 97%
    09:00 -15°C° 0 mm 2 mps 732 mmHg 97%
    10:00 -14°C° 0 mm 2 mps 732 mmHg 96%
    11:00 -13°C° 0 mm 2 mps 733 mmHg 96%
    12:00 -14°C° 0 mm 3 mps 733 mmHg 94%
    13:00 -13°C° 0 mm 3 mps 733 mmHg 93%
    14:00 -13°C° 0 mm 3 mps 733 mmHg 91%
    15:00 -14°C° 0 mm 3 mps 733 mmHg 92%
    16:00 -14°C° 0 mm 2 mps 734 mmHg 93%
    17:00 -15°C° 0 mm 2 mps 734 mmHg 94%
    18:00 -16°C° 0 mm 2 mps 734 mmHg 95%
    19:00 -17°C° 0 mm 2 mps 735 mmHg 95%
    20:00 -18°C° 0 mm 2 mps 735 mmHg 96%
    21:00 -19°C° 0 mm 2 mps 735 mmHg 97%
    22:00 -20°C° 0 mm 2 mps 736 mmHg 97%
    23:00 -21°C° 0 mm 2 mps 736 mmHg 98%

    28 January, Monday

    Time Temperature Precipitation Wind Pressure Humidity
    00:00 -21°C° 0 mm 2 mps 737 mmHg 98%
    01:00 -23°C° 0 mm 2 mps 737 mmHg 99%
    02:00 -23°C° 0 mm 2 mps 737 mmHg 99%
    03:00 -21°C° 0 mm 1 mps 738 mmHg 99%
    04:00 -22°C° 0 mm 1 mps 738 mmHg 99%
    05:00 -22°C° 0 mm 1 mps 738 mmHg 99%
    06:00 -22°C° 0 mm 1 mps 738 mmHg 99%
    07:00 -22°C° 0 mm 0 mps 739 mmHg 99%
    08:00 -23°C° 0 mm 0 mps 739 mmHg 99%
    09:00 -21°C° 0 mm 1 mps 739 mmHg 97%
    10:00 -19°C° 0 mm 1 mps 739 mmHg 95%
    11:00 -18°C° 0 mm 2 mps 739 mmHg 93%
    12:00 -18°C° 0 mm 2 mps 739 mmHg 92%
    13:00 -17°C° 0 mm 2 mps 739 mmHg 91%
    14:00 -17°C° 0 mm 3 mps 739 mmHg 90%
    15:00 -17°C° 0 mm 3 mps 739 mmHg 90%
    16:00 -18°C° 0 mm 4 mps 738 mmHg 90%
    17:00 -19°C° 0 mm 4 mps 738 mmHg 90%
    18:00 -19°C° 0.2 mm 5 mps 738 mmHg 91%
    19:00 -18°C° 0.2 mm 5 mps 738 mmHg 92%
    20:00 -17°C° 0.2 mm 6 mps 737 mmHg 93%
    21:00 -16°C° 0.3 mm 6 mps 737 mmHg 93%
    22:00 -15°C° 0.3 mm 6 mps 737 mmHg 93%
    23:00 -15°C° 0.3 mm 6 mps 736 mmHg 94%

    29 January, Tuesday

    Time Temperature Precipitation Wind Pressure Humidity
    00:00 -14°C° 0.1 mm 6 mps 736 mmHg 94%
    01:00 -12°C° 0.1 mm 5 mps 736 mmHg 94%
    02:00 -11°C° 0.1 mm 5 mps 735 mmHg 94%
    03:00 -10°C° 0.1 mm 6 mps 735 mmHg 94%
    04:00 -9°C° 0.1 mm 6 mps 734 mmHg 94%
    05:00 -8°C° 0.1 mm 6 mps 733 mmHg 94%
    06:00 -8°C° 0.1 mm 6 mps 733 mmHg 93%
    07:00 -7°C° 0.1 mm 7 mps 733 mmHg 93%
    08:00 -6°C° 0.1 mm 7 mps 732 mmHg 93%
    09:00 -4°C° 0.2 mm 7 mps 732 mmHg 93%
    10:00 -3°C° 0.2 mm 7 mps 732 mmHg 93%
    11:00 -3°C° 0.2 mm 7 mps 732 mmHg 93%
    12:00 -2°C° 0.5 mm 7 mps 732 mmHg 94%
    13:00 -2°C° 0.5 mm 7 mps 732 mmHg 95%
    14:00 -2°C° 0.5 mm 6 mps 732 mmHg 95%
    15:00 -2°C° 0.1 mm 6 mps 732 mmHg 96%
    16:00 -1°C° 0.1 mm 5 mps 732 mmHg 96%
    17:00 -1°C° 0.1 mm 5 mps 732 mmHg 97%
    18:00 -1°C° 0 mm 5 mps 733 mmHg 95%
    19:00 -1°C° 0 mm 5 mps 733 mmHg 94%
    20:00 -2°C° 0 mm 5 mps 734 mmHg 93%
    21:00 -2°C° 0 mm 5 mps 734 mmHg 93%
    22:00 -2°C° 0 mm 5 mps 735 mmHg 93%
    23:00 -2°C° 0 mm 5 mps 735 mmHg 93%
    Show more